User: anonymous   Login
Location: London
(51.5074°N, 0.1278°W)
Time: 22:46:18
(UTC+01:00)
Language:

Oscar 11 - Orbit

View from above orbital plane
View from above orbital plane
View from above satellite
View from above satellite

Ground track
Ground track

The orbit data is extracted from the following two-line orbital elements,

1 14781U 84021B   19171.04952444  .00000047  00000-0  11843-4 0  9999
2 14781  97.6104 195.7041 0007469 324.1021  35.9691 14.83090927898962
Epoch (UTC): 20 June 2019 01:11:18
Eccentricity: 0.0007469
inclination: 97.6104°
perigee height: 614 km
apogee height: 625 km
right ascension of ascending node: 195.7041°
argument of perigee: 324.1021°
revolutions per day: 14.83090927
mean anomaly at epoch: 35.9691°
orbit number at epoch: 89896

The dashed part of the orbit path shows where the satellite is in the earth's shadow,  

DLR